EW9434 Weather Reports


Display with metric or nautical units.
time (UTC)temp
F
wind
direction
speed
MPH
gust
MPH
rain 1hr
in
rain 24hr
in
rain mn
in
humidity
%
barometer
mb
20260507080750 44 287 0.0 1.0 0.00 0.00 0.00 89 1013.8
20260507080226 44 287 0.0 3.0 0.00 0.00 0.00 89 1013.7
20260507075720 44 287 0.0 3.0 0.00 0.00 0.00 89 1013.7
20260507075218 44 287 0.0 2.0 0.00 0.01 0.00 89 1013.7
20260507074713 44 287 0.0 1.0 0.00 0.01 0.00 90 1013.7
20260507074525 43 287 0.0 0.0 0.00 0.08 0.00 90 1014.1
20260507074212 44 287 0.0 0.0 0.00 0.02 0.00 90 1013.7
20260507073708 44 287 0.0 0.0 0.00 0.03 0.00 90 1013.7
20260507073206 44 287 0.0 0.0 0.00 0.04 0.00 90 1013.7
20260507073026 43 287 0.0 0.0 0.00 0.08 0.00 91 1014.1
20260507072639 44 287 0.0 1.0 0.00 0.04 0.00 91 1013.7
20260507072140 44 287 0.0 1.0 0.00 0.04 0.00 91 1013.7
20260507071831 44 287 0.0 3.0 0.00 0.05 0.00 91 1013.7
20260507071616 44 287 0.0 3.0 0.00 0.08 0.00 91 1014.1
20260507071107 44 288 0.0 3.0 0.00 0.05 0.00 91 1013.7
20260507070604 44 287 0.0 2.0 0.00 0.06 0.00 91 1013.7
20260507070037 44 287 0.0 1.0 0.00 0.08 0.00 90 1013.7
20260507070011 44 287 0.0 1.0 0.00 0.13 0.00 90 1014.1
20260507065510 44 287 0.0 2.0 0.00 0.09 0.00 90 1013.7
20260507064944 45 287 0.0 2.0 0.00 0.10 0.00 90 1013.8
20260507064647 45 288 0.0 1.0 0.00 0.11 0.00 90 1013.8
20260507064600 44 287 0.0 1.0 0.00 0.13 0.00 90 1014.2
20260507063914 45 287 0.0 2.0 0.00 0.11 0.00 90 1013.9
20260507063412 45 287 0.0 1.0 0.00 0.11 0.00 90 1013.9
20260507063013 45 287 0.0 3.0 0.00 0.13 0.00 90 1014.3
20260507062844 45 288 0.0 3.0 0.00 0.11 0.00 90 1013.9
20260507062342 45 288 0.0 2.0 0.00 0.11 0.00 89 1013.9
20260507061814 45 287 0.0 1.0 0.00 0.11 0.00 89 1013.9
20260507061539 45 287 0.0 1.0 0.00 0.13 0.00 89 1014.2
20260507061512 45 287 0.0 1.0 0.00 0.12 0.00 89 1013.8
20260507060950 46 287 0.0 1.0 0.00 0.13 0.00 89 1013.8
20260507060156 46 287 0.0 1.0 0.00 0.13 0.00 89 1013.8
20260507060031 45 287 0.0 1.0 0.00 0.13 0.00 89 1014.2
20260507055631 46 287 0.0 1.0 0.00 0.14 0.00 88 1013.9
20260507055106 46 287 1.0 2.0 0.00 0.15 0.00 88 1013.9
20260507054538 46 287 1.0 2.0 0.00 0.15 0.00 88 1014.0
20260507054516 46 287 0.0 2.0 0.00 0.24 0.00 88 1014.4
20260507054011 46 288 0.0 2.0 0.00 0.15 0.00 88 1014.0
20260507053510 46 287 0.0 2.0 0.00 0.16 0.00 87 1014.0
20260507053048 46 287 0.0 2.0 0.00 0.24 0.00 87 1014.4
20260507053006 46 287 0.0 1.0 0.00 0.17 0.00 86 1014.0
20260507052437 47 287 0.0 2.0 0.00 0.17 0.00 86 1013.9
20260507051936 47 287 0.0 2.0 0.00 0.18 0.00 85 1013.8
20260507051548 47 287 0.0 2.0 0.00 0.24 0.00 85 1014.3
20260507051409 47 287 0.0 2.0 0.00 0.19 0.00 85 1013.9
20260507050906 47 287 0.0 2.0 0.00 0.21 0.00 84 1014.0
20260507050406 48 287 1.0 3.0 0.00 0.23 0.00 83 1014.1
20260507050119 48 287 1.0 3.0 0.00 0.24 0.00 82 1014.2
20260507050025 47 287 0.0 3.0 0.00 0.24 0.00 82 1014.6
20260507045356 48 288 1.0 3.0 0.00 0.26 0.00 81 1014.1
20260507044830 49 288 1.0 3.0 0.00 0.28 0.00 81 1014.2
20260507044540 48 288 0.0 3.0 0.00 0.42 0.00 80 1014.6
20260507044301 49 288 1.0 3.0 0.00 0.31 0.00 80 1014.2
20260507043800 49 288 1.0 3.0 0.00 0.31 0.00 79 1014.1
20260507043234 49 288 1.0 3.0 0.00 0.32 0.00 78 1014.0
20260507043035 49 287 0.0 3.0 0.00 0.42 0.00 78 1014.3
20260507042731 50 287 1.0 4.0 0.00 0.32 0.00 77 1013.9
20260507042226 50 287 1.0 4.0 0.00 0.34 0.00 77 1013.9
20260507041722 50 287 1.0 3.0 0.00 0.34 0.00 77 1014.0
20260507041509 50 287 1.0 3.0 0.00 0.42 0.00 77 1014.4
20260507041216 50 287 1.0 3.0 0.00 0.36 0.00 76 1014.0
20260507040652 50 287 1.0 3.0 0.00 0.39 0.00 76 1014.0
20260507040125 50 287 1.0 3.0 0.00 0.42 0.00 75 1013.9
20260507040008 50 287 1.0 3.0 0.00 0.46 0.42 75 1014.3
20260507035558 50 287 1.0 2.0 0.00 0.43 0.42 74 1013.9
20260507035032 50 287 0.0 2.0 0.00 0.44 0.42 73 1013.9
20260507034522 50 287 0.0 2.0 0.00 0.46 0.42 72 1014.3
20260507034505 51 287 1.0 2.0 0.00 0.44 0.42 72 1014.0
20260507034002 50 287 1.0 2.0 0.00 0.45 0.42 72 1014.0
20260507033457 50 287 1.0 2.0 0.00 0.45 0.42 71 1014.0
20260507033213 50 288 0.0 2.0 0.00 0.45 0.42 71 1013.9
20260507033039 50 288 0.0 2.0 0.00 0.46 0.42 71 1014.3
20260507032429 50 288 0.0 1.0 0.00 0.45 0.42 71 1013.9
20260507031928 50 289 0.0 1.0 0.00 0.45 0.42 71 1014.0
20260507031526 49 288 0.0 0.0 0.00 0.46 0.42 70 1014.3
20260507031359 50 288 0.0 1.0 0.00 0.45 0.42 70 1014.0
20260507030857 50 288 0.0 1.0 0.00 0.45 0.42 70 1014.0
20260507030330 50 288 0.0 0.0 0.00 0.45 0.42 70 1014.0
20260507030040 50 288 0.0 0.0 0.00 0.46 0.42 69 1014.4
20260507025817 51 288 0.0 0.0 0.00 0.46 0.42 69 1014.1
20260507025545 51 288 0.0 0.0 0.00 0.46 0.42 69 1014.1
20260507024754 51 288 0.0 0.0 0.00 0.47 0.42 68 1014.1
20260507024554 51 288 0.0 0.0 0.00 0.53 0.42 67 1014.4
20260507024255 51 288 0.0 0.0 0.00 0.47 0.42 67 1014.0
20260507024202 51 287 0.0 0.0 0.00 0.48 0.42 67 1014.0
20260507023229 51 287 0.0 1.0 0.00 0.49 0.42 67 1014.0
20260507023047 51 287 0.0 1.0 0.00 0.53 0.42 67 1014.3
20260507022702 51 287 0.0 1.0 0.00 0.50 0.42 66 1014.0
20260507022200 51 287 0.0 1.0 0.00 0.51 0.42 66 1014.0
20260507021658 51 287 0.0 0.0 0.00 0.51 0.42 66 1014.0
20260507021605 51 287 0.0 0.0 0.00 0.53 0.42 66 1014.3
20260507021156 51 287 0.0 1.0 0.00 0.51 0.42 66 1013.9
20260507020636 51 287 0.0 1.0 0.00 0.52 0.42 67 1013.8
20260507020111 51 287 0.0 0.0 0.00 0.52 0.42 67 1013.8
20260507020021 51 287 0.0 0.0 0.00 0.53 0.42 67 1014.1
20260507015612 51 287 0.0 1.0 0.00 0.54 0.42 67 1013.7
20260507015052 51 287 0.0 1.0 0.00 0.55 0.42 67 1013.7
20260507014552 51 287 0.0 1.0 0.00 0.56 0.42 67 1013.7
20260507014522 51 287 0.0 1.0 0.00 0.60 0.42 67 1014.0
20260507014032 51 287 0.0 1.0 0.00 0.56 0.42 67 1013.6
20260507013534 51 287 0.0 1.0 0.00 0.56 0.42 68 1013.5
20260507013231 51 287 0.0 0.0 0.00 0.56 0.42 67 1013.5
20260507013049 51 287 0.0 0.0 0.00 0.60 0.42 67 1013.7
20260507012452 52 287 0.0 0.0 0.00 0.56 0.42 67 1013.4
20260507012428 52 288 0.0 1.0 0.00 0.56 0.42 67 1013.2
20260507011536 52 288 0.0 1.0 0.00 0.60 0.42 67 1013.5
20260507011449 52 288 0.0 1.0 0.00 0.57 0.42 67 1013.3
20260507010922 53 288 0.0 0.0 0.00 0.58 0.42 66 1013.3
20260507010422 53 287 0.0 0.0 0.00 0.59 0.42 64 1013.4
20260507010035 53 288 0.0 0.0 0.00 0.60 0.42 64 1013.7
20260507005919 53 288 0.0 0.0 0.00 0.61 0.42 64 1013.4
20260507005423 53 287 0.0 0.0 0.00 0.62 0.42 63 1013.3
20260507005124 54 288 0.0 1.0 0.00 0.64 0.42 63 1013.3
20260507004519 53 288 0.0 1.0 0.00 0.67 0.42 62 1013.5
20260507004341 54 290 0.0 1.0 0.00 0.65 0.42 62 1013.3
20260507003820 54 273 0.0 1.0 0.00 0.65 0.42 62 1013.3
20260507003257 54 273 0.0 1.0 0.00 0.65 0.42 62 1013.2
20260507003031 54 273 0.0 2.0 0.00 0.67 0.42 62 1013.4
20260507002743 55 273 0.0 2.0 0.00 0.65 0.42 61 1013.2
20260507002243 55 273 1.0 3.0 0.00 0.65 0.42 61 1013.1
20260507001720 55 273 0.0 3.0 0.00 0.66 0.42 60 1013.0
20260507001549 54 290 0.0 3.0 0.00 0.67 0.42 61 1013.3
20260507001158 55 292 0.0 2.0 0.00 0.66 0.42 61 1012.8
20260507000658 55 291 1.0 2.0 0.00 0.67 0.42 60 1012.8
20260507000149 56 273 1.0 2.0 0.00 0.67 0.42 59 1012.7
20260507000008 55 289 0.0 2.0 0.00 0.69 0.42 60 1013.1
20260506235649 56 289 1.0 4.0 0.00 0.67 0.42 60 1012.8
20260506235147 56 289 1.0 4.0 0.00 0.67 0.42 58 1012.6
20260506235128 56 289 1.0 3.0 0.00 0.68 0.42 59 1012.6
20260506234502 56 291 1.0 3.0 0.00 0.69 0.42 59 1012.9
20260506234117 56 291 2.0 5.0 0.00 0.68 0.42 60 1012.7
20260506233557 57 273 2.0 5.0 0.00 0.68 0.42 58 1012.7
20260506233034 57 273 2.0 5.0 0.00 0.68 0.42 58 1012.6
20260506233002 57 273 1.0 5.0 0.00 0.69 0.42 56 1012.9
20260506232508 57 290 2.0 4.0 0.00 0.69 0.42 57 1012.6
20260506231947 58 273 2.0 4.0 0.00 0.69 0.42 54 1012.3
20260506231528 57 288 2.0 4.0 0.00 0.69 0.42 53 1012.6
20260506231445 58 288 2.0 4.0 0.00 0.69 0.42 53 1012.2
20260506230943 58 216 2.0 5.0 0.00 0.69 0.42 53 1012.4
20260506230456 58 215 2.0 7.0 0.00 0.69 0.42 53 1012.4
20260506230023 58 192 1.0 6.0 0.00 0.69 0.42 57 1012.7
20260506225940 58 190 2.0 8.0 0.00 0.69 0.42 57 1012.4
20260506225437 58 292 2.0 8.0 0.00 0.69 0.42 60 1012.6
20260506224913 58 291 1.0 4.0 0.00 0.69 0.42 55 1012.5
20260506224537 57 273 1.0 4.0 0.00 0.70 0.42 57 1012.8
20260506224348 58 273 1.0 4.0 0.00 0.69 0.42 57 1012.5
20260506223847 58 273 1.0 3.0 0.00 0.69 0.42 58 1012.5
20260506223343 58 273 2.0 4.0 0.00 0.69 0.42 56 1012.7
20260506223010 57 273 2.0 4.0 0.00 0.70 0.42 56 1013.0
20260506222840 58 273 1.0 4.0 0.00 0.69 0.42 56 1012.7
20260506222333 58 273 2.0 5.0 0.00 0.69 0.42 56 1012.7
20260506221805 58 273 2.0 5.0 0.00 0.69 0.42 56 1012.7
20260506221515 57 273 1.0 4.0 0.00 0.70 0.42 53 1013.1
20260506221238 58 273 1.0 4.0 0.00 0.70 0.42 54 1012.8
20260506220731 58 273 1.0 4.0 0.00 0.70 0.42 52 1012.8
20260506220714 58 273 1.0 5.0 0.00 0.70 0.42 51 1013.0
20260506220002 57 273 1.0 3.0 0.00 0.73 0.42 55 1013.2
20260506215703 58 273 2.0 5.0 0.00 0.70 0.42 56 1013.0
20260506215208 58 273 2.0 5.0 0.00 0.70 0.42 53 1012.8
20260506214632 58 273 1.0 5.0 0.00 0.70 0.42 59 1012.8
20260506214602 57 273 1.0 5.0 0.00 0.73 0.42 60 1013.1
20260506214105 58 273 1.0 3.0 0.00 0.71 0.42 54 1012.8
20260506213539 58 273 1.0 5.0 0.00 0.71 0.42 57 1012.7
20260506213057 57 273 0.0 4.0 0.00 0.73 0.42 53 1013.0
20260506213035 58 273 2.0 5.0 0.00 0.72 0.42 53 1012.7
20260506212530 58 273 2.0 5.0 0.00 0.72 0.42 54 1012.7
20260506212006 58 273 2.0 7.0 0.00 0.73 0.42 54 1012.6
20260506211523 57 273 1.0 6.0 0.00 0.73 0.42 53 1012.8
20260506211452 58 273 3.0 7.0 0.00 0.73 0.42 53 1012.5
20260506210951 58 288 3.0 7.0 0.00 0.73 0.42 53 1012.4
20260506210447 58 273 3.0 9.0 0.00 0.73 0.42 54 1012.3
20260506210203 59 273 2.0 8.0 0.00 0.73 0.42 51 1012.3
20260506210024 58 273 3.0 9.0 0.00 0.73 0.42 51 1012.6
20260506205637 59 286 2.0 6.0 0.00 0.73 0.42 53 1012.2
20260506204915 58 273 2.0 5.0 0.00 0.73 0.42 53 1012.2
20260506204515 58 286 1.0 5.0 0.00 0.75 0.42 53 1012.6
20260506204346 58 282 2.0 8.0 0.00 0.73 0.42 53 1012.3
20260506203847 58 288 3.0 8.0 0.00 0.73 0.42 52 1012.3
20260506203317 58 290 2.0 5.0 0.00 0.74 0.42 55 1012.5
20260506203004 58 273 1.0 3.0 0.00 0.75 0.42 53 1012.7
20260506202814 58 288 2.0 7.0 0.00 0.74 0.42 54 1012.4
20260506202515 58 288 2.0 7.0 0.00 0.74 0.42 56 1012.5
20260506201746 58 288 2.0 5.0 0.00 0.74 0.42 53 1012.4
20260506201520 57 288 2.0 6.0 0.00 0.75 0.42 53 1012.7
20260506201502 58 273 2.0 8.0 0.00 0.74 0.42 55 1012.4
20260506200717 57 273 3.0 8.0 0.00 0.75 0.42 53 1012.5
20260506200652 58 273 2.0 6.0 0.00 0.75 0.42 55 1012.4
20260506200012 57 273 2.0 6.0 0.00 0.75 0.42 55 1012.7
20260506195645 58 273 2.0 5.0 0.00 0.76 0.42 53 1012.5
20260506195142 58 273 2.0 5.0 0.00 0.76 0.42 56 1012.4
20260506194618 58 288 2.0 7.0 0.00 0.77 0.42 53 1012.3
20260506194547 58 289 1.0 5.0 0.00 0.96 0.42 54 1012.6
20260506194113 59 288 2.0 7.0 0.00 0.78 0.42 49 1012.3
20260506193611 59 140 3.0 7.0 0.00 0.80 0.42 54 1012.3
20260506193101 59 146 3.0 7.0 0.00 0.96 0.42 52 1012.5
20260506193044 59 273 3.0 7.0 0.00 0.87 0.42 52 1012.2
20260506192541 59 186 2.0 7.0 0.00 0.93 0.42 49 1012.0
20260506192015 59 184 2.0 7.0 0.00 0.94 0.42 54 1012.0
20260506191553 59 75 2.0 10.0 0.00 0.96 0.42 53 1012.3
20260506191513 59 184 3.0 10.0 0.00 0.96 0.42 53 1012.0
20260506191009 59 161 3.0 10.0 0.00 0.96 0.42 52 1012.1
20260506190729 59 191 3.0 13.0 0.00 0.96 0.42 51 1012.1
20260506190032 59 249 3.0 13.0 0.00 0.96 0.42 54 1012.3
20260506185937 59 189 3.0 13.0 0.00 0.96 0.42 56 1012.0
20260506185436 60 226 3.0 12.0 0.00 0.96 0.42 53 1012.1
20260506184906 60 199 2.0 11.0 0.00 0.96 0.42 52 1012.1
20260506184600 60 180 3.0 11.0 0.00 0.96 0.42 50 1012.4
20260506184405 60 222 3.0 8.0 0.00 0.96 0.42 52 1012.1
20260506183837 60 208 4.0 8.0 0.00 0.96 0.42 52 1012.0
20260506183336 60 208 5.0 12.0 0.00 0.96 0.42 52 1011.9
20260506183044 60 132 3.0 12.0 0.00 0.96 0.42 54 1012.1
20260506182807 61 200 3.0 12.0 0.00 0.96 0.42 48 1011.9
20260506182307 61 163 2.0 8.0 0.00 0.96 0.42 55 1011.8
20260506181741 61 313 2.0 8.0 0.00 0.96 0.42 54 1011.8
20260506181504 60 315 1.0 8.0 0.00 0.96 0.42 54 1012.1
20260506181455 60 295 3.0 8.0 0.00 0.96 0.42 54 1012.0
20260506180733 60 234 3.0 9.0 0.00 0.96 0.42 53 1012.1
20260506180652 60 134 3.0 9.0 0.00 0.96 0.42 55 1012.0
20260506180003 60 187 3.0 9.0 0.00 0.96 0.42 54 1012.3
20260506175703 60 193 2.0 6.0 0.00 0.96 0.42 51 1012.1
20260506175158 61 156 2.0 5.0 0.00 0.96 0.42 55 1012.2
20260506174655 61 192 3.0 5.0 0.00 0.96 0.42 53 1012.3
20260506174623 61 236 3.0 7.0 0.00 0.96 0.42 55 1012.3
20260506174521 61 196 3.0 5.0 0.00 0.96 0.42 53 1012.6
20260506173600 61 345 3.0 7.0 0.00 0.96 0.42 53 1012.4
20260506173033 61 189 2.0 7.0 0.00 0.96 0.42 52 1012.4
20260506173009 60 190 2.0 6.0 0.00 0.96 0.42 52 1012.7
20260506172751 60 222 3.0 10.0 0.00 0.96 0.42 57 1012.2
20260506172027 60 353 3.0 10.0 0.00 0.96 0.42 52 1012.3
20260506171540 59 332 3.0 9.0 0.00 0.96 0.42 56 1012.6
20260506171502 59 329 3.0 9.0 0.00 0.96 0.42 55 1012.4
20260506170936 59 18 3.0 7.0 0.00 0.96 0.42 52 1012.5
20260506170447 59 319 3.0 6.0 0.00 0.96 0.42 55 1012.6
20260506170051 59 332 3.0 6.0 0.00 0.96 0.42 57 1012.8
20260506165903 59 194 2.0 7.0 0.00 0.96 0.42 57 1012.5
20260506165333 58 228 3.0 7.0 0.00 0.96 0.42 55 1012.7
20260506164832 58 210 3.0 9.0 0.00 0.96 0.42 54 1012.7
20260506164546 58 326 3.0 9.0 0.00 0.96 0.42 52 1013.0
20260506164319 58 213 3.0 9.0 0.00 0.96 0.42 54 1012.7
20260506164047 58 325 3.0 9.0 0.00 0.96 0.42 54 1012.5
20260506163253 58 288 3.0 9.0 0.00 0.96 0.42 56 1012.5
20260506163104 57 304 2.0 5.0 0.00 0.96 0.42 56 1012.9
20260506162751 58 207 3.0 9.0 0.00 0.96 0.42 57 1012.7
20260506162229 58 36 3.0 9.0 0.00 0.96 0.42 60 1012.6
20260506161655 58 358 3.0 8.0 0.00 0.96 0.42 59 1012.6
20260506161525 57 330 2.0 8.0 0.00 0.96 0.42 60 1012.8
20260506161151 58 212 3.0 9.0 0.00 0.96 0.42 56 1012.5
20260506160652 58 285 3.0 9.0 0.00 0.96 0.42 56 1012.4
20260506160121 58 181 3.0 7.0 0.00 0.96 0.42 60 1012.5
20260506160030 57 176 4.0 7.0 0.00 0.96 0.42 58 1012.7
20260506155619 58 180 2.0 6.0 0.00 0.96 0.42 62 1012.5
20260506155051 57 356 2.0 7.0 0.00 0.96 0.42 61 1012.3
20260506154605 57 325 2.0 7.0 0.00 0.96 0.42 58 1012.5
20260506154523 57 325 3.0 7.0 0.00 0.96 0.42 58 1012.3
20260506154221 57 327 3.0 6.0 0.00 0.96 0.42 58 1012.2
20260506153453 57 308 2.0 5.0 0.00 0.96 0.42 61 1012.4
20260506153006 56 290 1.0 5.0 0.00 0.96 0.42 60 1012.8
20260506152928 56 290 2.0 5.0 0.00 0.96 0.42 59 1012.6
20260506152423 56 309 2.0 5.0 0.00 0.96 0.42 62 1012.8
20260506151919 56 259 2.0 6.0 0.00 0.96 0.42 63 1012.7
20260506151607 55 219 1.0 6.0 0.00 0.96 0.42 62 1012.8
20260506151417 56 217 3.0 6.0 0.00 0.96 0.42 62 1012.5
20260506150852 56 218 3.0 6.0 0.00 0.96 0.42 63 1012.1
20260506150322 56 239 2.0 7.0 0.00 0.96 0.42 65 1012.0
20260506150031 55 238 2.0 6.0 0.00 0.96 0.42 64 1012.3
20260506150023 55 286 2.0 6.0 0.00 0.96 0.42 64 1011.9
20260506145228 54 307 2.0 6.0 0.00 0.96 0.42 68 1011.8
20260506144724 54 278 3.0 8.0 0.00 0.96 0.42 69 1011.7
20260506144608 53 347 1.0 8.0 0.00 0.96 0.42 70 1011.8
20260506144221 53 302 3.0 8.0 0.00 0.96 0.42 70 1011.6
20260506143721 52 282 2.0 8.0 0.00 0.96 0.42 73 1011.4
20260506143408 52 292 2.0 6.0 0.00 0.96 0.42 76 1011.4
20260506143059 51 289 1.0 5.0 0.00 0.96 0.42 77 1011.5
20260506142650 51 273 2.0 8.0 0.00 0.96 0.42 77 1011.4
20260506142125 51 273 2.0 8.0 0.00 0.96 0.42 76 1011.3
20260506141815 51 289 2.0 5.0 0.00 0.96 0.42 79 1011.6
20260506141503 51 290 1.0 4.0 0.00 0.96 0.42 79 1011.7
20260506141057 51 273 2.0 5.0 0.00 0.96 0.42 79 1011.6
20260506141040 50 291 2.0 6.0 0.00 0.96 0.42 79 1011.4
20260506140048 50 273 2.0 6.0 0.00 0.96 0.42 81 1011.3
20260506140025 50 273 1.0 6.0 0.00 0.96 0.42 81 1011.5
20260506135520 50 287 2.0 11.0 0.00 0.96 0.42 81 1011.3
20260506135017 49 284 2.0 11.0 0.00 0.96 0.42 82 1011.2
20260506134506 49 284 1.0 5.0 0.00 0.96 0.42 83 1011.3
20260506134450 49 285 1.0 5.0 0.00 0.96 0.42 83 1011.2
20260506133950 49 273 1.0 5.0 0.00 0.96 0.42 84 1011.3
20260506133438 48 273 0.0 2.0 0.00 0.96 0.42 85 1011.3
20260506133050 48 288 0.0 2.0 0.00 0.96 0.42 86 1011.4
20260506132934 48 288 0.0 3.0 0.00 0.96 0.42 86 1011.3
20260506132437 48 287 0.0 3.0 0.00 0.96 0.42 88 1011.3
20260506131909 48 282 0.0 3.0 0.00 0.96 0.42 88 1011.1
20260506131607 47 278 0.0 2.0 0.00 0.96 0.42 88 1011.1
20260506131408 47 278 0.0 3.0 0.00 0.96 0.42 89 1010.9
20260506131106 47 278 0.0 3.0 0.00 0.96 0.42 89 1010.9
20260506130316 47 278 0.0 3.0 0.00 0.96 0.42 89 1011.2
20260506130030 47 278 0.0 3.0 0.00 0.96 0.42 89 1011.3
20260506125751 47 278 0.0 3.0 0.00 0.96 0.42 90 1011.2
20260506125227 47 278 1.0 9.0 0.00 0.96 0.42 90 1011.0
20260506124703 47 273 0.0 9.0 0.00 0.96 0.42 91 1010.8
20260506124501 46 288 0.0 2.0 0.00 0.96 0.42 91 1010.9
20260506124205 47 287 0.0 3.0 0.00 0.96 0.42 92 1010.7
20260506123855 46 287 0.0 3.0 0.00 0.96 0.42 92 1010.7
20260506123137 46 278 0.0 3.0 0.00 0.96 0.42 93 1010.8
20260506123013 46 278 0.0 2.0 0.00 0.96 0.42 93 1010.9
20260506122616 46 278 0.0 3.0 0.00 0.96 0.42 93 1010.6
20260506122057 46 288 0.0 5.0 0.00 0.96 0.42 94 1010.6
20260506121559 46 283 1.0 5.0 0.00 0.96 0.42 94 1010.6
20260506121529 45 283 0.0 5.0 0.00 0.96 0.42 94 1010.7
20260506121042 45 289 1.0 7.0 0.00 0.96 0.42 94 1010.5
20260506121007 45 278 1.0 7.0 0.00 0.96 0.42 94 1010.1
20260506120059 45 282 0.0 3.0 0.00 0.96 0.42 94 1010.2
20260506120020 45 282 0.0 3.0 0.00 0.96 0.42 94 1010.2
20260506115456 45 282 0.0 2.0 0.00 0.96 0.42 94 1010.3
20260506114957 45 282 0.0 3.0 0.00 0.96 0.42 95 1010.0
20260506114602 44 282 0.0 3.0 0.00 0.98 0.42 94 1009.9
20260506114428 44 282 0.0 3.0 0.00 0.96 0.42 94 1009.7
20260506113928 44 282 1.0 5.0 0.00 0.97 0.42 94 1009.6
20260506113648 44 282 1.0 5.0 0.00 0.97 0.42 94 1009.3
20260506113102 44 282 0.0 4.0 0.00 0.98 0.42 95 1009.3
20260506112922 44 282 1.0 5.0 0.00 0.98 0.42 95 1009.4
20260506112420 44 282 1.0 5.0 0.00 0.98 0.42 95 1009.3
20260506111922 44 282 1.0 5.0 0.00 0.98 0.42 95 1009.2
20260506111529 44 278 1.0 4.0 0.00 0.98 0.42 95 1009.1
20260506111358 44 282 0.0 4.0 0.00 0.98 0.42 95 1009.2
20260506110900 44 282 1.0 4.0 0.00 0.98 0.42 95 1009.2
20260506110346 44 288 1.0 4.0 0.00 0.98 0.42 95 1009.3
20260506110104 44 288 1.0 4.0 0.00 0.98 0.42 95 1009.4
20260506105812 44 282 1.0 4.0 0.00 0.98 0.42 95 1009.4